Flag for Russia Weather past 2 weeks in Syktyvkar, Russia

Now
16 °F

Snow flurries. Mostly cloudy.


Feels Like: 3 °F
Forecast: 16 / 24 °F
Wind: 10 mph from Southwest

Location: Syktyvkar Airport

Current Time: Jan 28, 2015 at 5:23:46 PM

Latest Report: Jan 28, 2015 at 4:30 PM


Visibility: 5 mi

Pressure: 29.71 "Hg

Humidity: 86%

Dew point: 12 °F

Location of SyktyvkarLocation

Historic Weather in Syktyvkar — Graph

°F

Syktyvkar temperature yesterday

Maximum temperature yesterday: 16 °F (at 12:00 AM)
Minimum temperature yesterday: 10 °F (at 10:00 AM)
Average temperature yesterday: 13 °F

Past Weeks' High & Low Weather Summary

 TemperatureHumidityPressure
High32 °F (Jan 17, 8:30 PM)100% (Jan 17, 12:00 AM)30.74 "Hg (Jan 17, 12:00 AM)
Low-29 °F (Jan 23, 6:00 AM)67% (Jan 23, 3:00 AM)29.33 "Hg (Jan 13, 4:00 PM)
Average12 °F85%29.98 "Hg
* Reported Jan 13 4:00 PM — Jan 28 4:00 PM, Syktyvkar, Weather by CustomWeather, © 2014

Note: Actual official high and low records may vary slightly from our data, if they occured in-between our weather recording intervals... More about our weather records

Advertising

Syktyvkar weather history for previous 24 hours

 ConditionsComfort  
Time TempWeatherWind HumidityBarometerVisibility
4:00 PM
Jan 28
16 °FSnow flurries. Mostly cloudy.10 mph86%29.71 "Hg6 mi
3:30 PM16 °FSnow flurries. Mostly cloudy.10 mph86%29.71 "Hg3 mi
3:00 PM16 °FSnow flurries. Mostly cloudy.10 mph86%29.71 "Hg1 mi
2:30 PM18 °FMostly cloudy.10 mph79%29.71 "HgN/A
2:00 PM18 °FSnow flurries. Cloudy.13 mph79%29.71 "Hg6 mi
1:30 PM16 °FCloudy.10 mph86%29.71 "HgN/A
1:00 PM16 °FSnow flurries. More clouds than sun.13 mph86%29.71 "HgN/A
12:30 PM16 °FSnow flurries. More clouds than sun.10 mph86%29.71 "HgN/A
12:00 PM16 °FSnow flurries. More clouds than sun.13 mph86%29.74 "Hg6 mi
11:30 AM16 °FSnow flurries. More clouds than sun.10 mph86%29.74 "Hg3 mi
11:00 AM16 °FSnow flurries. More clouds than sun.13 mph86%29.74 "Hg3 mi
10:30 AM16 °FSnow flurries. Mostly cloudy.13 mph86%29.74 "Hg3 mi
10:00 AM16 °FSnow flurries. Mostly cloudy.13 mph86%29.74 "Hg3 mi
9:30 AM16 °FSnow flurries. Mostly cloudy.10 mph79%29.74 "Hg5 mi
9:00 AM16 °FLight snow. Mostly cloudy.10 mph79%29.77 "HgN/A
8:30 AM16 °FLight snow. Mostly cloudy.13 mph79%29.77 "Hg6 mi
8:00 AM14 °FMostly cloudy.10 mph85%29.77 "Hg6 mi
7:30 AM14 °FLight snow. Mostly cloudy.10 mph85%29.77 "Hg5 mi
7:00 AM14 °FLight snow. Mostly cloudy.10 mph85%29.80 "Hg4 mi
6:30 AM14 °FLight snow. Overcast.10 mph85%29.80 "Hg5 mi
6:00 AM14 °FLight snow. Overcast.13 mph85%29.80 "Hg4 mi
5:30 AM14 °FLight snow. Mostly cloudy.10 mph85%29.80 "HgN/A
5:00 AM12 °FLight snow. Mostly cloudy.8 mph92%29.83 "HgN/A
4:30 AM12 °FLight snow. Mostly cloudy.8 mph92%29.83 "HgN/A
4:00 AM12 °FLight snow. Mostly cloudy.8 mph85%29.83 "Hg6 mi
3:30 AM14 °FSnow flurries. Mostly cloudy.8 mph85%29.86 "Hg3 mi
3:00 AM14 °FSnow flurries. Mostly cloudy.8 mph85%29.86 "Hg2 mi
2:30 AM14 °FSnow showers. Mostly cloudy.8 mph85%29.86 "Hg1 mi
2:00 AM14 °FSnow flurries. Mostly cloudy.8 mph85%29.89 "Hg2 mi
1:30 AM14 °FSnow flurries. Mostly cloudy.8 mph85%29.89 "Hg2 mi
1:00 AM12 °FSnow flurries. Mostly cloudy.6 mph85%29.89 "Hg3 mi
12:00 AM12 °FSnow flurries. Mostly cloudy.8 mph79%29.92 "Hg4 mi
11:30 PM
Jan 27
10 °FSnow flurries. Mostly cloudy.8 mph85%29.92 "Hg6 mi
11:00 PM10 °FSnow flurries. Mostly cloudy.8 mph85%29.95 "Hg5 mi
10:30 PM10 °FSnow flurries. Mostly cloudy.10 mph85%29.95 "Hg4 mi
10:00 PM12 °FSnow flurries. Mostly cloudy.10 mph79%29.95 "Hg6 mi
9:30 PM12 °FSnow flurries. Mostly cloudy.10 mph79%29.98 "HgN/A
9:00 PM12 °FSnow flurries. Mostly cloudy.10 mph79%29.95 "Hg5 mi
8:30 PM10 °FSnow flurries. Overcast.13 mph85%29.98 "Hg4 mi
8:00 PM10 °FSnow flurries. Overcast.10 mph85%29.98 "Hg4 mi
7:30 PM10 °FSnow flurries. Overcast.13 mph85%29.98 "Hg3 mi
7:00 PM10 °FSnow flurries. Overcast.13 mph85%29.98 "Hg4 mi
6:30 PM12 °FSnow flurries. Overcast.13 mph79%29.98 "Hg4 mi
6:00 PM12 °FSnow flurries. Overcast.13 mph79%30.01 "Hg4 mi
5:30 PM12 °FSnow flurries. Overcast.13 mph79%30.01 "Hg3 mi
5:00 PM12 °FSnow flurries. Overcast.13 mph79%30.01 "Hg3 mi
Weather by CustomWeather, © 2014

See weather overviewHow to use our weather pages